Nassau, Bahamas

11:32 PM EST on February 23, 2018 (GMT -0500)
Nassau International

Weather History for MYNN - January, 2015

Change the Weather History Date:

Friday, January 2, 2015

  Actual Average Record
Temperature  
Mean Temperature 78 °F -  
Max Temperature 82 °F 77 °F 86 °F (2007)
Min Temperature 73 °F 62 °F 53 °F (2001)
Cooling Degree Days 12    
Growing Degree Days 28 (Base 50)    
Moisture  
Dew Point 73 °F    
Average Humidity 84    
Maximum Humidity 100    
Minimum Humidity 70    
Precipitation  
Precipitation 0.00 in 0.06 in - ()
Sea Level Pressure  
Sea Level Pressure 30.21 in    
Wind  
Wind Speed 6 mph ()    
Max Wind Speed 12 mph    
Max Gust Speed -    
Visibility 6.9 miles    
Events      
Averages and records for this station are not official NWS values.
T = Trace of Precipitation, MM = Missing Value Source: Averaged Metar Reports

Daily Weather History Graph

Daily Weather History Graph

Search for Another Location

Airport or City:

Trip Planner

Search our weather history database for the weather conditions in past years. The results will help you decide how hot, cold, wet, or windy it might be!

Date:

Astronomy

Jan. 02, 2015 Rise Set
Actual Time 6:55 AM EST 5:32 PM EST
Civil Twilight 6:30 AM EST 5:57 PM EST
Nautical Twilight 6:01 AM EST 6:25 PM EST
Astronomical Twilight 5:33 AM EST 6:53 PM EST
Moon 3:43 PM EST (1/2) 4:28 AM EST (1/2)
Length of Visible Light 11h 27m
Length of Day
10h 37m
Waxing Gibbous, 94% of the Moon is Illuminated
Jan 2
Waxing Gibbous
Jan 4
Full
Jan 13
Last Quarter
Jan 20
New
Jan 26
First Quarter

Hourly Weather History & Observations

Time (EST) Temp. Heat Index Dew Point Humidity Pressure Visibility Wind Dir Wind Speed Gust Speed Precip Events Conditions
12:00 AM 75.2 °F - 69.8 °F 83% 30.19 in 6.2 mi East 5.8 mph - N/A   Mostly Cloudy
1:00 AM 76 °F - 72 °F 84% 30.19 in 9 mi East 4.6 mph - -  
1:00 AM 75.2 °F - 71.6 °F 89% 30.19 in 6.2 mi East 4.6 mph - N/A   Scattered Clouds
4:00 AM 76 °F - 74 °F 94%  in 9 mi East 4.6 mph - -   Mostly Cloudy
4:00 AM 77.0 °F - 75.2 °F 94% 30.19 in 6.2 mi East 4.6 mph - N/A   Mostly Cloudy
5:00 AM 75.2 °F - 69.8 °F 83% 30.19 in 6.2 mi East 3.5 mph - N/A   Scattered Clouds
6:00 AM 75.2 °F - 69.8 °F 83% 30.20 in 6.2 mi East 5.8 mph - N/A   Partly Cloudy
7:00 AM 75 °F - 75 °F 99% 30.22 in 9 mi East 4.6 mph - -   Scattered Clouds
7:00 AM 75.2 °F - 75.2 °F 100% 30.22 in 6.2 mi East 4.6 mph - N/A   Partly Cloudy
8:00 AM 75.2 °F - 71.6 °F 89% 30.22 in 6.2 mi East 5.8 mph - N/A   Mostly Cloudy
9:00 AM 78.8 °F - 71.6 °F 78% 30.24 in 6.2 mi ESE 5.8 mph - N/A   Scattered Clouds
10:00 AM 81 °F - 75 °F 78% 30.26 in 8 mi East 5.8 mph - -   Partly Cloudy
10:00 AM 80.6 °F 86.2 °F 75.2 °F 84% 30.26 in 6.2 mi East 5.8 mph - N/A   Mostly Cloudy
11:00 AM 80.6 °F 83.9 °F 69.8 °F 70% 30.24 in 6.2 mi ESE 9.2 mph - N/A   Mostly Cloudy
12:00 PM 80.6 °F 83.9 °F 69.8 °F 70% 30.22 in 6.2 mi East 10.4 mph - N/A   Mostly Cloudy
1:00 PM 82 °F - 75 °F 75% 30.20 in 9 mi ESE 10.4 mph - -   Mostly Cloudy
1:00 PM 82.4 °F 89.5 °F 75.2 °F 79% 30.20 in 6.2 mi ESE 10.4 mph - N/A   Mostly Cloudy
2:00 PM 80.6 °F 83.9 °F 69.8 °F 70% 30.18 in 6.2 mi ESE 10.4 mph - N/A   Mostly Cloudy
3:00 PM 80.6 °F 83.9 °F 69.8 °F 70% 30.18 in 6.2 mi ESE 11.5 mph - N/A   Scattered Clouds
4:00 PM 81 °F - 75 °F 78% 30.18 in 9 mi SE 11.5 mph - -   Partly Cloudy
4:00 PM 80.6 °F 86.2 °F 75.2 °F 84% 30.18 in 6.2 mi SE 11.5 mph - N/A   Scattered Clouds
5:00 PM 78.8 °F - 71.6 °F 78% 30.19 in 6.2 mi SE 9.2 mph - N/A   Mostly Cloudy
6:00 PM 77.0 °F - 69.8 °F 78% 30.20 in 6.2 mi SE 6.9 mph - N/A   Scattered Clouds
7:00 PM 77 °F - 75 °F 92% 30.23 in 9 mi East 2.3 mph - -   Scattered Clouds
7:00 PM 77.0 °F - 75.2 °F 94% 30.22 in 6.2 mi East 2.3 mph - N/A   Scattered Clouds
8:00 PM 75.2 °F - 69.8 °F 83% 30.23 in 6.2 mi East 4.6 mph - N/A   Partly Cloudy
10:00 PM 77 °F - 76 °F 97% 30.24 in 9 mi East 6.9 mph - -   Partly Cloudy
10:00 PM 77.0 °F - 77.0 °F 100% 30.24 in 6.2 mi East 6.9 mph - N/A   Scattered Clouds
11:00 PM 77.0 °F - 71.6 °F 83% 30.23 in 6.2 mi East 6.9 mph - N/A   Scattered Clouds